Regional Weather Roundup
Issued by NWS

Home | Current Version | Previous Version | Text Only | Print | Product List | Glossary Off
Versions: 1 2 3 4 5 6 7 8 9 10 11 12 13 14 15 16 17 18 19 20 21 22 23 24 25 26 27 28 29 30 31 32 33 34 35 36 37 38 39 40 41 42 43 44 45 46 47 48 49 50

197
ASUS43 KOAX 050302
RWRNE

WEATHER ROUNDUP FOR NEBRASKA
NATIONAL WEATHER SERVICE OMAHA NE
900 PM CST SUN DEC 04 2016

NOTES: SATELLITE DATA IS BEING USED TO AUGMENT CLOUD COVER ABOVE
       12000 FEET.
       "FAIR" INDICATES FEW OR NO CLOUDS BELOW 12,000 FEET WITH NO
       SIGNIFICANT WEATHER AND/OR OBSTRUCTIONS TO VISIBILITY.

  * THESE STATIONS DO NOT REPORT WEATHER SUCH AS RAIN...SNOW OR FOG.

NEZ001>004-019>022-054>056-050400-
NEBRASKA PANHANDLE

CITY           SKY/WX    TMP DP  RH WIND       PRES   REMARKS
SCOTTSBLUFF    CLOUDY    29  16  58 E7        29.68F WCI  22
ALLIANCE       PTCLDY    33  19  56 S8        29.67F WCI  26
CHADRON        PTCLDY    36  19  50 SW10      29.63F WCI  28
SIDNEY         CLOUDY    32  14  47 SW8       29.73F WCI  25
$$

NEZ057>060-069>072-079>082-050400-
SOUTHWEST NEBRASKA

CITY           SKY/WX    TMP DP  RH WIND       PRES   REMARKS
NORTH PLATTE   CLOUDY    38  15  39 S12       29.75F WCI  30
IMPERIAL       CLOUDY    36  13  38 SW12      29.77F WCI  28
LEXINGTON      CLEAR     36  19  49 S10       29.81F WCI  29
MCCOOK         CLEAR     36  15  42 S12       29.80F WCI  28
OGALLALA       CLEAR     36  15  43 SW10      29.74S WCI  28
$$

NEZ005>010-023>029-035>040-094-050400-
NORTH CENTRAL NEBRASKA

CITY           SKY/WX    TMP DP  RH WIND       PRES   REMARKS
VALENTINE      PTCLDY    37  15  40 S10       29.69F WCI  30
AINSWORTH      CLEAR     30  18  61 S8        29.71F WCI  23
BROKEN BOW     CLEAR     31  20  63 S9        29.78F WCI  23
O`NEILL        CLEAR     32  22  67 S5        29.77F WCI  27
ORD            CLEAR     29  18  63 S10       29.79F WCI  20
$$

NEZ041-046>049-061>064-073>077-083>087-050400-
SOUTH CENTRAL NEBRASKA

CITY           SKY/WX    TMP DP  RH WIND       PRES   REMARKS
GRAND ISLAND   CLEAR     37  30  75 SW13      29.85F WCI  29
AURORA         CLEAR     35  32  90 SW12      29.86F WCI  26
HASTINGS       CLEAR     35  29  78 S8        29.87F WCI  29
HEBRON         CLEAR     34  30  85 S8        29.91F WCI  27
HOLDREGE       CLEAR     32  20  62 S7        29.84F WCI  26
KEARNEY *      CLEAR     30  21  69 S8        29.84F WCI  23
YORK           CLEAR     32  32 100 SW8       29.88F WCI  25
$$

NEZ011>018-030>034-042>045-050400-
NORTHEAST NEBRASKA

CITY           SKY/WX    TMP DP  RH WIND       PRES   REMARKS
NORFOLK        CLEAR     36  29  75 S14       29.81F WCI  27
ALBION         CLEAR     33  28  83 S7        29.82F WCI  27
BLAIR          CLEAR     32  31  95 S8        29.88F WCI  25
FREMONT        CLEAR     34  32  92 S6        29.88S WCI  29
TEKAMAH        CLEAR     32  30  92 SE8       29.88F WCI  25
WAYNE          CLEAR     29  27  92 S5        29.83F WCI  23
$$

NEZ050>053-065>068-078-088>093-050400-
SOUTHEAST NEBRASKA

CITY           SKY/WX    TMP DP  RH WIND       PRES   REMARKS
LINCOLN        CLEAR     32  30  92 VRB3      29.92S
OMAHA EPPLEY   CLEAR     33  28  81 S9        29.91S WCI  25
BEATRICE       CLEAR     34  31  91 S6        29.92F WCI  29
FALLS CITY     CLEAR     34  32  92 S6        29.95S WCI  29
NEBRASKA CITY  CLEAR     36  33  90 SW12      29.93R WCI  27
PLATTSMOUTH    CLEAR     34  30  85 S9        29.91S WCI  27
$$

NEZ044-045-051>053-067-050400-
OMAHA AREA

CITY           SKY/WX    TMP DP  RH WIND       PRES   REMARKS
OMAHA EPPLEY   CLEAR     33  28  81 S9        29.91S WCI  25
BLAIR          CLEAR     32  31  95 S8        29.88F WCI  25
FREMONT        CLEAR     34  32  92 S6        29.88S WCI  29
MILLARD        CLEAR     32  30  91 CALM      29.91S
OFFUTT AFB     CLEAR     25  25 100 CALM      29.91S
PLATTSMOUTH    CLEAR     34  30  85 S9        29.91S WCI  27
WAHOO          FAIR      33  31  92 SW12      29.88F WCI  24
$$




USA.gov is the U.S. government's official web portal to all federal, state and local government web resources and services.